#timestamp,LO_Frequency,Hit,StdDev 
1562695215.0,286047001.1,N
1562695215.9,286047001.1,N
1562695235.8,286047000.0,N
1562695255.6,286047000.4,N
1562695275.5,286047000.1,N
1562695295.3,286046998.2,N
1562695315.1,286046999.4,N
1562695335.9,286046998.2,N
1562695355.7,286046998.2,N
1562695375.6,286046998.5,N
1562695395.4,286046998.2,N
1562695415.2,286047000.8,N
1562695435.1,286047000.6,N
1562695436.0,286047000.6,N
1562695455.8,286047002.2,N
1562695475.7,286047000.1,N
1562695495.5,286047000.8,N
1562695515.3,286046998.7,N
1562695535.2,286046998.4,N
1562695555.0,286046998.3,N
1562695555.9,286046998.3,N
1562695575.8,286047000.0,N
1562695595.6,286046999.9,N
1562695615.4,286047000.6,N
1562695635.3,286046998.9,N
1562695655.1,286046996.9,N
1562695675.8,286047001.2,N
1562695695.7,286046998.3,N
1562695715.5,286046998.7,N
1562695735.4,286046996.7,N
1562695755.2,286046996.8,N
1562695775.0,286046996.6,N
1562695775.9,286046996.6,N
1562695795.8,286046998.8,N
1562695815.6,286046998.8,N
1562695835.5,286046999.5,N
1562695855.3,286046999.4,N
1562695875.1,286046997.1,N
1562695895.9,286046999.4,N
1562695915.7,286046999.0,N
1562695935.5,286046998.9,N
1562695955.4,286046999.1,N
1562695975.2,286047001.1,N
1562695995.1,286046998.6,N
1562695996.0,286046998.6,N
1562696015.8,286047000.8,N
1562696035.2,286047001.1,N
1562696055.1,286047000.4,N
1562696056.0,286047000.4,N
1562696075.8,286047001.1,N
1562696095.6,286046999.9,N
1562696115.5,286047000.6,N
1562696135.3,286047002.6,N
1562696155.1,286047000.1,N
1562696175.9,286047001.6,N
1562696195.7,286046999.9,N
1562696215.6,286047001.5,N
1562696235.4,286047002.0,N
1562696255.2,286046999.7,N
1562696275.1,286047002.6,N
1562696276.0,286047002.6,N
1562696295.8,286047004.1,N
1562696315.7,286047001.8,N
1562696335.5,286047001.9,N
1562696355.3,286047002.8,N
1562696375.2,286047000.7,N
1562696395.0,286047001.1,N
1562696395.9,286047001.1,N
1562696415.7,286046999.9,N
1562696435.6,286047000.7,N
1562696455.4,286047000.0,N
1562696475.3,286047000.4,N
1562696495.1,286047000.5,N
1562696515.8,286047000.4,N
1562696535.7,286047001.0,N
1562696555.5,286046998.4,N
1562696575.4,286046998.8,N
1562696595.2,286047001.2,N
1562696615.0,286047000.7,N
1562696615.9,286047000.7,N
1562696635.8,286046998.4,N
1562696655.6,286046999.2,N
1562696675.4,286046997.1,N
1562696695.3,286046997.7,N
1562696715.1,286046996.8,N
1562696735.9,286046997.7,N
1562696755.7,286046997.6,N
1562696775.5,286046995.0,N
1562696795.4,286046997.3,N
1562696815.2,286046995.0,N
1562696835.0,286046997.9,N
1562696836.0,286046997.9,N
1562696855.8,286046996.0,N
1562696875.6,286046993.5,Y
1562696895.5,286046996.4,P
1562696915.3,286046996.0,N
1562696935.1,286046996.0,N
1562696955.9,286046993.4,Y
1562696975.7,286046999.1,P
1562696995.6,286046996.7,P
1562697015.4,286046999.3,N
1562697035.2,286046998.3,N
1562697055.1,286046998.1,N
1562697056.0,286046998.1,N
1562697075.8,286046998.2,N
1562697095.7,286047000.4,N
1562697115.5,286047001.0,N
1562697135.3,286047000.0,N
1562697155.2,286047001.1,N
1562697175.0,286047000.5,N
1562697175.9,286047000.5,N
1562697195.7,286047001.2,N
1562697215.6,286046999.1,N
1562697235.4,286046998.2,N
1562697255.3,286047000.9,N
1562697275.1,286047001.1,N
1562697276.0,286047001.1,N
1562697295.8,286046999.0,N
1562697315.7,286047001.2,N
1562697335.5,286047001.0,N
1562697355.3,286047001.2,N
1562697375.2,286047000.8,N
1562697395.0,286047000.7,N
1562697395.9,286047000.7,N
1562697415.8,286046998.2,N
1562697435.6,286047000.1,N
1562697455.4,286047000.6,N
1562697475.3,286047000.4,N
1562697495.1,286047002.8,N
1562697515.9,286047000.3,N
1562697535.7,286046998.5,N
1562697555.5,286047001.9,N
1562697575.4,286047002.1,N
1562697595.2,286047002.2,N
1562697615.0,286047004.3,Y
1562697616.0,286047004.3,P
1562697635.8,286047000.2,N
1562697655.6,286047002.0,N
1562697675.5,286047000.1,N
1562697695.3,286047001.0,N
1562697715.2,286047000.4,N
1562697735.9,286047002.5,N
1562697755.7,286047002.1,N
1562697775.6,286047001.6,N
1562697795.4,286047004.2,Y
1562697815.3,286047003.8,P
1562697835.1,286047002.0,N
1562697836.0,286047002.0,N
1562697855.8,286047002.6,N
1562697875.7,286047002.6,Y
1562697895.5,286046999.2,P
1562697915.4,286046999.4,N
1562697935.2,286046996.9,N
1562697955.0,286046998.9,N
1562697955.9,286046998.9,N
1562697975.8,286046998.8,N
1562697995.6,286046998.5,N
1562698015.5,286047001.0,N
1562698035.3,286047000.2,N
1562698055.1,286047002.6,N
1562698075.9,286047002.7,N
1562698095.7,286046999.8,N
1562698115.5,286046999.9,N
1562698135.4,286047000.7,N
1562698155.2,286046998.2,N
1562698175.1,286047000.6,N
1562698176.0,286047000.6,N
1562698195.8,286047001.2,N
1562698215.6,286047000.9,N
1562698235.5,286047002.0,N
1562698255.3,286047002.2,N
1562698275.2,286047001.9,N
1562698295.9,286047002.6,N
1562698315.7,286047000.6,N
1562698335.6,286047001.0,N
1562698355.4,286047002.3,N
1562698375.2,286047000.9,N
1562698395.1,286047002.4,N
1562698396.0,286047002.4,N
1562698415.8,286046998.5,N
1562698435.7,286047000.1,N
1562698455.5,286047000.4,N
1562698475.3,286047000.2,N
1562698495.2,286047002.6,N
1562698515.0,286047001.5,N
1562698515.9,286047001.5,N
1562698535.8,286047001.9,N
1562698555.6,286047002.6,N
1562698575.4,286047003.7,Y
1562698595.3,286046999.9,P
1562698615.1,286047000.3,N
1562698665.9,286047000.9,E
1562698675.8,286046998.1,N
1562698695.6,286047001.0,P
1562698715.5,286047001.0,N
1562698735.3,286047002.4,N
1562698755.1,286047000.2,N
1562698775.9,286046998.4,N
1562698795.7,286046998.8,N
